Location: Brachbach
(49.1847°N, 9.7240°E)
Time: 17:12:43
(UTC+00:00)

Nadezhda 1 Rocket - Pass Details

Date: 13 August 2024
Orbit: 941 x 1004 km, 83.0° (Epoch: 19 September)

Event Time Altitude Azimuth Distance (km) Brightness Sun altitude
Rises 02:38:48 0° 133° (SE) 3,609 7.0 -13.4°
Reaches altitude 10° 02:42:18 10° 113° (ESE) 2,663 6.6 -13.0°
Maximum altitude 02:45:45 16° 78° (ENE) 2,261 6.9 -12.5°
Drops below altitude 10° 02:49:13 10° 43° (NE) 2,668 7.8 -12.1°
Sets 02:52:43 0° 23° (NNE) 3,619 8.2 -11.7°
